Starlink 35482

operational
NORAD ID: 66346 Int'l Des: 2025-253 Owner: SPXS Country: US Constellation: starlink
NOTLE

关于 Starlink 35482

正在加载描述...

实时位置

正在加载3D地球...

即将过境

高度历史

Altitude vs Time

uPlot chart will show altitude changes over time

两行轨道根数

1 66346C 25253AD 25310.44284722 .00621070 00000+0 93997-3 0 3108
2 66346 43.0040 203.2854 0007365 235.4919 273.8903 16.02888309 14
Epoch: Nov 6, 2025 • Age: 25 hours

当前状态

高度 270.9 km
速度 7.75 km/s
星下点 42.39°N, 124.39°W
发射日期 Nov 6, 2025
运行时间 N/A
类型 internet

技术详情

分类 Payload
质量 575.00 kg
干质量 530.00 kg
总质量 575.00 kg
长度 0.30 m
直径 4.10 m
跨度 29.00 m
形状 Box + pan
制造商 SPXS
平台类型 Starlink V2MO
阶段状态 In Orbit
所有者/国家 SPXS/US

大型星座

Loading constellations...